Regional Weather Roundup
Issued by NWS

Home | Current Version | Previous Version | Text Only | Print | Product List | Glossary Off
Versions: 1 2 3 4 5 6 7 8 9 10 11 12 13 14 15 16 17 18 19 20 21 22 23 24 25 26 27 28 29 30 31 32 33 34 35 36 37 38 39 40 41 42 43 44 45 46 47 48 49 50

000
ASUS43 KLMK 180910
RWRKY
KENTUCKY REGIONAL WEATHER ROUNDUP
NATIONAL WEATHER SERVICE LOUISVILLE KY
500 AM EDT THU SEP 18 2014

NOTE "FAIR" INDICATES FEW OR NO CLOUDS BELOW 12,000 FEET
WITH NO SIGNIFICANT WEATHER AND/OR OBSTRUCTIONS TO VISIBILITY.

KYZ001>023-026-027-061>063-070>075-181000-
WESTERN AND SOUTH CENTRAL KENTUCKY

CITY           SKY/WX    TMP DP  RH WIND       PRES   REMARKS
PADUCAH        CLOUDY    64  59  83 CALM      29.96R HAZE
HENDERSON      CLOUDY    63  54  72 NE7       29.98F
OWENSBORO      CLOUDY    63  55  75 E7        29.99F
HOPKINSVILLE   CLOUDY    59  59 100 NE5       29.97F
BOWLING GREEN  PTCLDY    58  55  90 CALM      29.99S
GLASGOW        MOCLDY    57  56  97 CALM      29.99S
$$

KYZ024-025-028>034-038-045-046-053-181000-
NORTH CENTRAL KENTUCKY

CITY           SKY/WX    TMP DP  RH WIND       PRES   REMARKS
LOUISVILLE/SDF MOCLDY    59  52  77 CALM      30.01S
LOUISVILLE/LOU CLOUDY    57  53  86 CALM      30.02R
FORT KNOX      CLOUDY    58  53  84 N3        30.00S
$$

KYZ035>037-039>044-047>052-055>060-089>105-181000-
NORTHEAST KENTUCKY

CITY           SKY/WX    TMP DP  RH WIND       PRES   REMARKS
LEXINGTON      CLOUDY    58  51  78 NE5       30.01S
COVINGTON      PTCLDY    53  49  86 N5        30.02S
FRANKFORT      PTCLDY    53  51  93 CALM      30.01S
$$

KYZ054-064>069-076>088-106>120-181000-
SOUTHEAST KENTUCKY

CITY           SKY/WX    TMP DP  RH WIND       PRES   REMARKS
JACKSON        MOCLDY    56  53  90 CALM      30.01S
LONDON         LGT RAIN  58  54  86 NE3       30.01S
SOMERSET       NOT AVBL
MIDDLESBORO    CLOUDY    55  55  99 CALM      30.02S
MONTICELLO     PTSUNNY   60  59  97 CALM      30.01F FOG
$$



USA.gov is the U.S. government's official web portal to all federal, state and local government web resources and services.